Samedi 23 juin 2018   -   semaine 25                    on fête: Audrey                    soleil  (-1 mn) lever du soleil 05:55:00 coucher du soleil 21:42:00                    lune Lune gibbeuse croissante
Sélection

Sélection d'un SYNOP

   Synop:       

  Période à consulter:

Actuelle
Archive     

Relevé

Dernier relevé du SYNOP pour la période choisie

Conditions météo à la station de Vichy/Charmeil (4610N 00324E)    altitude 251m

Date du relevé23/06/2018 à 17:00
Visibilité20km
Vent7 km/h NNE
Température23.5 C
Température mini / 12h85.7 C
Humidité41.1 %
Point de rosée9.5 C
Pression absolue993.1 hPa
Pression relative1022.0 hPa
Variation pression-1.6 hPa en baisse régulière ou irrégulière

24h

Historique de la période choisie

Certaines stations ne diffusent pas en continu, d'où l'absence possible de données à certaines heures. Le tableau ci-dessous récapitule l'historique des relevés de la station de Vichy/Charmeil.

Date - Heure Base des nuages Visibilité Nébulosité Vent - Secteur Température Humidité Point rosée Pression / Géopotentiel Précipitations Temps
23/06 17:00 20km 7 km/h NNE 23.5 C 41.1 % 9.5 C 1022.0 hPa
23/06 16:00 20km 6 km/h N 22.5 C 40.0 % 8.2 C 1022.6 hPa
23/06 15:00 17km 9 km/h N 21.7 C 41.1 % 7.9 C 1023.3 hPa
23/06 14:00 20km 9 km/h NNE 20.7 C 41.9 % 7.3 C 1023.9 hPa 0 mm/6h
23/06 13:00 20km 7 km/h N 20.1 C 46.9 % 8.4 C 1024.4 hPa
23/06 12:00 18km 7 km/h NNE 18.9 C 50.9 % 8.5 C 1024.8 hPa
23/06 11:00 20km 6 km/h NNE 17.7 C 49.9 % 7.1 C 1025.2 hPa
23/06 10:00 19km 6 km/h N 15.9 C 64.9 % 9.3 C 1025.7 hPa
23/06 09:00 20km 4 km/h N 13.4 C 72.2 % 8.5 C 1026.1 hPa
23/06 08:00 20km 4 km/h N 11.9 C 77.0 % 8.0 C 1026.0 hPa 0 mm/12h
23/06 07:00 20km 4 km/h NNE 8.5 C 94.1 % 7.6 C 1026.1 hPa
23/06 06:00 20km 0 km/h N 6.2 C 95.9 % 5.6 C 1026.2 hPa
23/06 05:00 20km 0 km/h N 6.8 C 96.0 % 6.2 C 1026.1 hPa
23/06 04:00 20km 2 km/h O 7.3 C 94.0 % 6.4 C 1026.3 hPa
23/06 03:00 20km 0 km/h N 8.2 C 92.1 % 7.0 C 1026.3 hPa
23/06 02:00 20km 0 km/h N 9.3 C 86.7 % 7.2 C 1026.3 hPa 0 mm/6h
23/06 01:00 20km 0 km/h N 11.8 C 74.9 % 7.5 C 1026.2 hPa
23/06 00:00 20km 2 km/h NNO 13.2 C 68.8 % 7.6 C 1025.9 hPa
22/06 23:00 20km 2 km/h N 13.9 C 68.0 % 8.1 C 1025.8 hPa
22/06 22:00 20km 6 km/h N 16.5 C 54.9 % 7.4 C 1025.0 hPa
22/06 21:00 20km 9 km/h NNE 19.1 C 46.0 % 7.2 C 1024.3 hPa
22/06 20:00 20km 11 km/h N 20.4 C 45.1 % 8.1 C 1023.8 hPa 0 mm/12h
22/06 19:00 20km 11 km/h NNE 21.6 C 40.0 % 7.4 C 1023.4 hPa
22/06 18:00 20km 13 km/h NNE 22.2 C 40.1 % 8.0 C 1023.6 hPa

Source: ogimet